Date,TemperatureHighF,TemperatureAvgF,TemperatureLowF,DewpointHighF,DewpointAvgF,DewpointLowF,HumidityHigh,HumidityAvg,HumidityLow,PressureMaxIn,PressureMinIn,WindSpeedMaxMPH,WindSpeedAvgMPH,GustSpeedMaxMPH,PrecipitationSumIn
2013-1-1,34,29,21,33,26,16,97,91,80,29.87,29.67,16,5,16,0.34
2013-1-2,29,22,16,18,14,10,89,72,51,29.93,29.83,12,2,12,0.00
2013-1-3,36,25,16,26,20,13,92,80,63,30.05,29.87,10,1,10,0.00
2013-1-4,41,28,18,28,23,16,94,81,53,30.10,30.00,15,1,15,0.00
2013-1-5,40,32,21,30,26,19,94,79,65,30.02,29.83,12,2,12,0.00
2013-1-6,38,32,24,31,27,20,94,80,67,30.03,29.77,18,4,18,0.00
2013-1-7,42,29,20,28,23,18,94,79,54,30.11,29.84,7,1,7,0.00
2013-1-8,52,37,22,35,28,19,92,72,45,29.92,29.80,13,1,13,0.00
2013-1-9,53,46,40,45,39,32,92,78,64,30.06,29.85,14,2,14,0.01
2013-1-10,62,51,42,58,49,35,98,91,66,30.05,29.48,21,4,21,0.71
2013-1-11,60,54,49,55,49,45,93,83,67,29.63,29.50,22,4,22,0.79
2013-1-12,65,59,54,63,58,50,100,96,87,29.59,29.32,37,3,37,1.22
2013-1-14,25,23,21,20,19,18,89,82,77,30.06,29.96,18,7,18,0.00
2013-1-15,30,24,20,24,21,18,92,86,71,29.97,29.71,18,6,18,0.00
2013-1-16,30,28,26,25,24,22,91,84,75,29.78,29.68,11,2,11,0.00
2013-1-17,43,32,25,33,26,21,92,78,65,30.11,29.73,24,4,24,0.09
2013-1-18,45,34,22,28,24,19,93,67,47,30.18,29.92,15,3,15,0.09
2013-1-19,54,41,34,34,28,24,73,60,45,29.92,29.72,22,5,22,0.00
2013-1-22,22,22,21,7,1,-3,53,41,34,30.04,29.99,8,2,8,0.00
2013-1-23,44,30,18,29,18,5,84,60,47,30.00,29.76,13,2,13,0.00
2013-1-24,33,26,19,25,13,8,76,57,43,30.18,29.88,26,7,26,0.00
2013-1-25,37,29,24,26,21,7,91,74,42,29.88,29.74,11,2,11,0.01
2013-1-26,42,32,24,27,22,19,93,70,42,30.00,29.87,11,2,11,0.00
2013-1-27,49,36,28,42,33,20,95,86,69,29.95,29.72,17,2,17,0.14
2013-1-28,59,54,49,56,50,42,95,86,71,29.74,29.65,19,5,19,0.04
2013-1-29,64,58,55,57,54,52,91,87,75,29.65,29.36,22,6,24,0.04
2013-1-30,54,40,30,50,32,18,100,74,60,29.56,29.06,16,10,24,0.00
2013-1-31,38,30,19,29,19,6,92,65,51,29.95,29.56,13,8,24,0.02
2013-2-1,25,18,10,13,6,-1,66,58,46,30.16,29.94,11,4,24,0.02
2013-2-2,38,31,23,28,21,13,82,66,54,29.94,29.71,9,3,24,0.00
2013-2-3,38,33,27,28,24,19,90,69,47,29.80,29.63,11,4,24,0.00
2013-2-4,46,36,26,36,29,20,91,76,46,29.73,29.51,11,4,24,0.03
2013-2-5,52,39,32,38,34,29,94,81,52,29.72,29.55,7,2,24,0.03
2013-2-6,48,40,32,36,30,27,93,69,48,29.89,29.72,5,2,24,0.00
2013-2-7,62,49,36,51,40,30,95,73,53,29.71,29.48,10,2,24,0.57
2013-2-8,46,37,31,43,30,25,90,79,65,29.99,29.56,15,8,24,0.57
2013-2-9,44,37,29,33,28,24,83,71,55,30.00,29.69,6,3,24,0.00
2013-2-10,53,49,42,51,42,31,93,77,56,29.68,29.34,14,6,24,0.35
2013-2-11,53,44,36,49,30,26,87,59,44,29.78,29.49,10,5,24,0.35
2013-2-12,46,39,27,32,29,26,97,71,50,29.78,29.49,6,1,24,0.01
2013-2-13,43,37,33,34,32,31,92,83,65,29.57,29.45,11,5,24,0.02
2013-2-14,55,44,34,39,35,31,92,73,51,29.65,29.54,8,4,24,0.02
2013-2-15,42,37,29,31,24,14,85,61,36,29.86,29.67,10,5,24,0.00
2013-2-16,34,27,22,18,13,5,75,57,30,29.86,29.79,10,4,24,0.00
2013-2-17,44,32,18,24,18,11,84,57,38,29.88,29.68,7,2,24,0.00
2013-2-18,57,46,37,44,35,21,94,68,40,29.68,29.33,15,8,24,0.98
2013-2-19,41,35,27,34,18,7,83,54,25,29.91,29.49,12,8,24,0.98
2013-2-20,29,25,22,17,13,9,75,61,51,30.01,29.89,8,4,24,0.00
2013-2-21,34,28,23,33,22,15,96,78,58,29.91,29.45,10,5,24,1.11
2013-2-22,40,36,30,36,32,24,97,84,74,29.70,29.44,10,5,24,1.12
2013-2-23,40,32,25,25,23,21,84,68,50,29.70,29.59,7,2,24,0.00
2013-2-24,48,36,23,29,24,20,90,64,43,29.78,29.63,5,2,24,0.00
2013-2-25,53,43,33,36,27,24,78,55,34,29.66,29.11,11,6,24,0.10
2013-2-26,47,41,36,45,37,31,98,86,74,29.31,28.97,12,6,24,0.04
2013-2-27,36,35,34,31,30,28,83,82,79,29.44,29.31,9,7,24,0.04
2013-3-5,40,33,30,36,26,18,94,74,56,29.69,29.43,34,10,34,0.11
2013-3-6,39,33,30,26,23,21,76,67,56,29.96,29.68,26,7,26,0.11
2013-3-7,42,33,27,29,25,22,83,72,55,30.04,29.94,9,2,9,0.00
2013-3-8,52,39,28,31,27,24,86,64,37,30.07,29.86,12,2,12,0.00
2013-3-9,64,51,40,34,31,27,69,49,29,29.87,29.57,17,3,17,0.00
2013-3-10,63,55,46,52,43,34,99,67,46,29.57,29.34,31,7,31,0.42
2013-3-11,48,39,35,48,34,27,99,82,71,29.64,29.36,22,6,22,0.43
2013-3-12,48,38,27,28,24,16,89,60,34,29.81,29.63,19,4,19,0.00
2013-3-13,40,34,29,26,19,14,68,53,39,30.04,29.81,25,6,25,0.00
2013-3-14,42,32,22,33,24,18,89,73,43,30.04,29.76,12,1,12,0.06
2013-3-15,70,52,29,49,39,26,94,65,42,29.76,29.40,17,3,17,0.06
2013-3-16,64,56,41,49,44,35,80,63,52,29.62,29.36,26,9,26,0.00
2013-3-17,41,38,35,40,36,33,99,94,79,29.70,29.34,18,6,18,0.74
2013-3-18,48,42,34,44,39,32,100,91,71,29.62,29.28,20,4,20,2.22
2013-3-19,49,40,31,34,21,8,97,52,20,29.83,29.62,19,3,19,0.00
2013-3-20,40,34,26,28,22,13,86,62,44,29.84,29.72,23,6,23,0.00
2013-3-21,37,30,23,19,14,9,66,50,38,29.75,29.60,13,3,13,0.00
2013-3-22,37,33,31,23,21,18,65,61,53,29.66,29.61,10,3,10,0.00
2013-4-11,52,48,42,50,44,33,96,88,69,29.39,29.25,22,4,22,0.61
2013-4-12,57,45,35,38,34,30,90,65,38,29.68,29.39,28,6,28,0.61
2013-4-13,61,48,34,43,35,29,89,62,40,29.73,29.58,11,2,11,0.00
2013-4-14,71,60,48,49,44,40,79,58,36,29.58,29.39,27,5,27,0.00
2013-4-15,77,66,55,58,54,48,84,66,50,29.57,29.45,19,4,19,0.00
2013-4-16,79,69,63,69,63,56,93,81,64,29.68,29.52,20,4,20,0.02
2013-4-17,81,70,58,67,62,57,97,77,56,29.70,29.46,24,3,24,0.02
2013-4-18,77,68,41,64,59,40,98,75,55,29.47,29.24,31,8,31,2.25
2013-4-19,47,41,37,40,31,26,97,67,50,29.72,29.36,24,6,24,2.26
2013-4-20,58,45,31,38,32,26,97,63,35,29.95,29.72,18,2,18,0.00
2013-4-21,61,51,40,36,32,27,70,51,28,30.04,29.87,17,3,17,0.00
2013-4-22,71,58,44,48,40,33,71,53,35,29.89,29.66,15,2,15,0.00
2013-4-23,70,62,52,57,51,43,86,68,55,29.69,29.48,21,5,21,0.00
2013-4-24,51,42,37,47,36,32,93,81,55,29.92,29.52,23,4,23,0.27
2013-4-25,63,48,32,45,36,31,96,66,38,29.99,29.90,13,2,13,0.01
2013-4-26,50,48,46,46,42,38,95,81,64,30.06,29.89,14,1,14,0.52
2013-4-27,56,51,46,55,51,46,99,97,93,29.94,29.53,14,1,14,0.68
2013-4-28,57,54,50,55,51,49,99,90,80,29.59,29.50,16,2,16,0.68
2013-4-29,72,58,45,55,51,45,98,79,52,29.64,29.50,10,2,10,0.00
2013-4-30,80,66,49,55,52,48,97,67,38,29.61,29.52,11,1,11,0.00
2013-5-1,77,65,53,62,57,51,96,77,55,29.72,29.61,12,1,12,0.00
2013-5-2,71,64,56,60,56,53,96,77,57,29.77,29.65,11,1,11,0.07
2013-5-3,70,57,40,58,52,38,97,84,59,29.65,29.39,24,4,24,0.66
2013-5-4,51,43,37,42,38,35,98,83,58,29.60,29.49,11,2,11,1.03
2013-5-5,56,49,42,51,45,39,96,88,75,29.58,29.46,11,2,11,0.02
2013-5-6,62,55,50,54,51,48,96,89,71,29.56,29.45,19,5,19,0.03
2013-5-7,70,60,50,57,54,49,98,82,57,29.64,29.54,11,1,11,0.01
2013-5-8,78,66,54,57,54,49,96,68,39,29.67,29.58,16,2,16,0.00
2013-5-9,78,69,58,61,58,55,92,69,49,29.67,29.53,22,3,22,0.00
2013-5-10,72,64,59,63,59,53,97,84,66,29.60,29.45,19,3,19,0.18
2013-5-11,70,58,53,54,48,36,88,70,47,29.75,29.57,20,4,20,0.18
2013-5-12,60,52,44,39,32,25,82,48,28,29.84,29.74,17,3,17,0.00
2013-5-13,68,54,39,44,37,29,95,57,28,29.88,29.74,13,1,13,0.00
2013-5-14,82,74,50,58,54,42,73,51,40,29.74,29.54,23,6,23,0.00
2013-5-15,81,72,64,60,54,50,70,54,43,29.67,29.54,18,4,18,0.00
2013-5-16,79,71,65,61,57,50,77,63,49,29.62,29.53,15,2,15,0.00
2013-5-17,68,65,62,62,60,56,94,85,72,29.62,29.55,14,2,14,0.01
2013-5-18,78,69,63,64,63,61,96,82,62,29.63,29.55,7,1,7,0.00
2013-5-19,85,76,65,71,67,63,97,76,53,29.56,29.46,18,3,18,0.00
2013-5-20,84,76,67,68,66,64,92,73,54,29.58,29.43,14,4,19,0.00
2013-5-21,76,67,62,67,62,60,96,85,66,29.55,29.41,37,4,37,1.18
2013-5-22,75,67,60,62,60,57,98,79,56,29.47,29.36,22,4,22,1.36
2013-5-23,70,62,54,60,53,47,95,73,54,29.79,29.47,23,5,23,0.03
2013-5-24,67,56,46,47,43,37,85,62,34,29.98,29.79,18,3,18,0.00
2013-5-25,73,61,45,54,48,43,95,65,37,29.97,29.77,9,1,9,0.00
2013-5-26,80,69,58,60,55,52,84,63,42,29.83,29.70,10,1,10,0.00
2013-5-27,82,72,59,65,58,53,83,64,44,29.71,29.54,20,3,20,0.00
2013-5-28,84,75,68,66,62,55,81,64,47,29.65,29.56,24,5,24,0.00
2013-5-29,84,75,62,65,60,55,80,61,45,29.69,29.55,20,4,20,0.00
2013-5-30,82,75,66,68,65,62,93,72,57,29.65,29.52,31,6,31,0.17
2013-5-31,78,71,64,70,67,62,96,86,70,29.61,29.47,20,5,20,0.02
2013-6-1,74,65,60,69,62,59,100,93,76,29.61,29.40,29,3,29,0.30
2013-6-2,73,66,62,62,59,56,97,78,58,29.61,29.52,16,3,16,0.30
2013-6-3,71,63,56,57,54,52,92,74,54,29.70,29.59,12,3,12,0.00
2013-6-4,77,66,55,60,55,51,86,69,50,29.70,29.59,9,1,9,0.00
2013-6-5,81,72,63,64,60,55,86,68,48,29.61,29.44,9,2,9,0.02
2013-6-6,80,71,63,66,62,58,99,76,50,29.48,29.39,14,2,14,1.04
2013-6-7,76,69,62,61,59,56,90,71,52,29.51,29.41,17,3,18,0.00
2013-6-8,78,68,57,61,57,50,96,70,38,29.63,29.50,12,1,12,0.00
2013-6-9,74,67,60,69,62,56,96,85,72,29.63,29.44,17,2,17,0.32
2013-6-10,79,70,62,66,62,60,96,80,55,29.56,29.44,17,3,17,0.40
2013-6-11,90,76,60,72,67,59,99,75,52,29.63,29.52,13,2,13,0.00
2013-6-12,90,83,73,73,70,67,85,66,48,29.65,29.45,22,4,22,0.00
2013-6-13,80,76,68,70,64,58,78,67,53,29.59,29.42,26,5,26,0.00
2013-6-14,80,70,58,61,57,54,91,64,46,29.70,29.58,17,2,17,0.00
2013-6-15,86,74,60,65,61,55,95,67,39,29.73,29.59,12,1,12,0.00
2013-6-16,72,70,68,66,63,62,87,79,72,29.64,29.60,5,0,5,0.00
2013-6-17,85,71,64,71,66,62,99,87,61,29.58,29.50,23,2,23,1.36
2013-6-18,82,72,63,66,63,61,97,76,53,29.64,29.46,24,3,24,1.44
2013-6-19,83,72,62,69,65,61,99,78,49,29.68,29.58,10,1,10,1.50
2013-6-20,87,77,66,71,68,62,97,76,49,29.76,29.67,8,1,8,0.00
2013-6-21,87,78,69,70,68,65,90,71,52,29.79,29.70,12,2,12,0.00
2013-6-22,87,77,68,69,66,62,93,71,50,29.78,29.66,23,3,23,0.15
2013-6-23,86,77,68,68,65,62,89,69,51,29.73,29.61,18,2,18,0.15
2013-6-24,88,76,70,72,68,63,92,79,52,29.75,29.64,12,2,12,0.21
2013-6-25,88,80,72,73,70,68,93,74,57,29.67,29.51,15,3,15,0.21
2013-6-26,88,78,69,73,69,66,99,75,56,29.57,29.37,28,4,28,1.12
2013-6-27,90,79,67,74,69,64,99,74,43,29.49,29.42,16,3,16,2.43
2013-6-28,87,78,69,70,65,57,92,65,41,29.47,29.30,16,3,16,0.00
2013-6-29,82,72,62,61,59,56,91,64,45,29.34,29.25,31,4,31,0.00
2013-6-30,71,64,60,64,61,58,96,89,73,29.46,29.32,18,2,18,0.28
2013-7-1,69,65,63,62,61,59,94,88,76,29.53,29.42,20,5,20,0.29
2013-7-2,72,65,60,63,60,58,97,85,68,29.66,29.49,17,3,17,0.00
2013-7-3,76,67,60,64,60,58,95,81,59,29.73,29.64,7,1,7,0.00
2013-7-4,79,70,63,68,64,60,93,82,65,29.71,29.63,11,2,11,0.00
2013-7-5,78,71,66,68,65,63,93,82,65,29.72,29.63,7,1,7,0.00
2013-7-6,84,71,64,69,65,61,95,82,55,29.71,29.59,11,2,11,0.29
2013-7-7,86,74,62,71,66,60,96,78,50,29.72,29.65,10,1,10,0.30
2013-7-8,88,78,67,72,69,65,95,76,53,29.77,29.67,9,1,9,0.00
2013-7-9,90,81,70,74,71,68,93,73,53,29.73,29.59,10,2,14,0.00
2013-7-10,86,80,75,73,70,67,85,73,56,29.63,29.51,16,2,16,0.00
2013-7-11,81,75,68,72,65,58,92,73,51,29.64,29.55,18,4,18,0.00
2013-7-12,79,72,63,62,58,54,82,64,46,29.70,29.62,15,4,15,0.00
2013-7-13,81,72,63,64,60,55,82,66,43,29.68,29.61,14,2,14,0.00
2013-7-14,84,73,66,71,67,62,93,81,60,29.75,29.64,11,2,11,0.01
2013-7-15,84,78,71,72,70,68,93,79,65,29.85,29.74,11,2,11,0.01
2013-7-16,88,79,70,73,70,68,94,74,53,29.93,29.85,8,1,8,0.00
2013-7-17,90,81,72,74,72,68,95,74,52,29.94,29.80,8,1,8,0.00
2013-7-18,87,80,74,75,72,69,92,77,61,29.83,29.67,9,1,9,0.00
2013-7-19,87,78,68,71,69,67,95,76,56,29.69,29.55,14,2,14,0.00
2013-7-20,88,78,68,72,69,65,95,76,55,29.61,29.44,23,3,23,0.29
2013-7-21,82,71,67,72,68,65,98,90,71,29.59,29.49,13,1,13,0.83
2013-7-22,84,74,67,72,69,67,99,86,63,29.51,29.43,13,2,13,1.70
2013-7-23,87,77,66,72,69,65,96,78,57,29.54,29.39,20,3,25,0.06
2013-7-24,79,71,66,65,62,57,93,74,52,29.62,29.46,15,4,15,0.06
2013-7-25,77,69,60,61,58,54,86,69,48,29.71,29.60,12,2,12,0.00
2013-7-26,79,69,58,64,60,56,95,75,52,29.70,29.59,10,1,10,0.02
2013-7-27,79,70,64,66,62,54,97,77,53,29.62,29.52,18,3,18,0.03
2013-7-28,76,66,53,56,53,48,92,64,40,29.70,29.61,13,2,13,0.00
2013-7-29,77,68,56,62,58,54,94,72,49,29.80,29.68,8,1,8,0.00
2013-7-30,70,66,64,68,63,59,98,90,79,29.78,29.65,10,2,10,0.18
2013-7-31,82,74,67,72,68,65,96,85,66,29.66,29.56,16,2,16,0.22
2013-8-1,82,73,65,67,64,60,94,75,50,29.69,29.60,12,3,12,0.00
2013-8-2,82,72,60,68,63,59,96,75,49,29.67,29.57,10,1,10,0.00
2013-8-3,80,72,68,72,68,65,96,88,72,29.69,29.55,11,2,11,0.02
2013-8-4,78,72,66,69,61,58,89,71,54,29.77,29.67,10,2,10,0.02
2013-8-5,73,67,63,64,61,59,93,81,63,29.71,29.55,10,1,10,0.25
2013-8-6,80,72,67,72,68,64,96,88,76,29.59,29.50,10,1,10,0.28
2013-8-7,81,73,67,72,69,65,96,88,69,29.58,29.49,17,1,17,0.33
2013-8-8,80,73,68,74,70,67,99,92,74,29.60,29.50,12,1,12,0.09
2013-8-9,81,73,68,74,70,67,98,91,75,29.67,29.53,27,2,27,0.65
2013-8-10,79,73,69,71,69,68,96,88,74,29.74,29.64,7,1,7,0.11
2013-8-12,82,74,69,74,70,67,96,87,75,29.66,29.52,16,2,16,0.11
2013-8-13,80,72,65,69,66,60,97,80,54,29.68,29.54,15,4,15,0.11
2013-8-14,70,64,56,60,53,49,86,69,49,29.77,29.67,18,5,18,0.00
2013-8-15,73,64,55,56,53,50,85,69,50,29.75,29.66,11,3,11,0.00
2013-8-16,75,66,58,62,58,54,87,74,55,29.72,29.67,16,3,16,0.00
2013-8-17,74,66,61,66,62,58,98,87,73,29.77,29.68,16,2,16,0.58
2013-8-18,76,67,61,67,64,61,99,89,69,29.78,29.68,9,1,9,0.58
2013-8-19,80,71,63,68,65,62,97,84,63,29.75,29.65,8,1,8,0.00
2013-8-20,84,74,66,70,67,64,95,80,58,29.74,29.65,8,1,8,0.00
2013-8-21,83,75,66,72,68,65,97,82,59,29.77,29.67,12,1,12,0.00
2013-8-22,86,76,66,72,69,65,96,78,53,29.75,29.63,11,1,11,0.00
2013-8-23,85,75,69,74,70,68,96,85,66,29.71,29.63,9,1,9,0.06
2013-8-24,85,76,68,71,68,66,97,78,56,29.82,29.70,11,1,11,0.07
2013-8-25,87,75,67,73,68,64,91,80,59,29.89,29.80,9,1,9,0.00
2013-8-26,86,76,68,72,69,65,94,80,58,29.88,29.74,14,2,14,0.00
2013-8-27,86,76,67,72,69,64,93,79,62,29.75,29.65,11,2,11,0.00
2013-8-28,89,78,68,70,68,64,95,73,46,29.68,29.61,12,1,12,0.00
2013-8-29,90,80,70,72,69,66,86,70,50,29.66,29.57,12,1,12,0.00
2013-8-30,92,81,70,74,70,67,94,73,45,29.61,29.49,10,1,10,0.00
2013-8-31,78,75,74,72,70,63,91,85,64,29.52,29.48,22,1,22,0.00
2013-9-3,81,74,66,65,62,59,83,67,49,29.68,29.59,11,3,11,0.00
2013-9-4,78,69,60,63,60,57,90,72,52,29.78,29.68,10,1,10,0.00
2013-9-5,80,69,57,65,61,56,95,78,55,29.82,29.74,8,1,8,0.00
2013-9-6,83,73,65,68,65,63,94,77,55,29.80,29.68,8,1,8,0.00
2013-9-7,86,74,62,68,65,61,97,77,51,29.70,29.58,12,1,12,0.00
2013-9-8,84,75,65,72,68,63,95,81,61,29.61,29.53,8,1,8,0.00
2013-9-9,90,80,72,73,71,68,93,75,52,29.64,29.56,8,2,10,0.00
2013-9-10,89,78,72,74,70,66,92,78,51,29.77,29.64,12,2,12,0.00
2013-9-11,90,75,67,75,69,64,96,84,55,29.79,29.67,17,1,17,0.06
2013-9-12,84,74,67,72,67,60,96,79,60,29.68,29.56,14,2,14,0.07
2013-9-13,72,65,59,61,53,50,81,65,47,29.70,29.61,17,5,17,0.00
2013-9-14,70,59,52,51,44,-100,89,64,44,29.77,29.67,14,-26,14,0.00
2013-9-15,78,63,48,56,52,46,96,71,41,29.73,29.67,12,1,12,0.00
2013-9-16,72,65,60,62,59,55,88,80,69,29.83,29.70,14,3,14,0.00
2013-9-17,78,68,59,64,60,56,91,78,56,29.83,29.71,10,2,10,0.00
2013-9-18,82,72,65,69,66,62,92,82,62,29.75,29.64,11,2,11,0.00
2013-9-19,83,74,67,71,67,65,92,81,64,29.71,29.58,15,3,15,0.00
2013-9-20,75,69,64,68,65,63,99,89,76,29.60,29.45,10,2,14,1.07
2013-9-21,70,62,56,64,52,46,98,71,45,29.54,29.45,22,5,22,1.13
2013-9-22,71,61,51,53,50,48,90,69,46,29.62,29.53,11,2,11,0.00
2013-9-23,74,62,52,57,53,49,91,73,49,29.65,29.55,12,1,12,0.00
2013-9-24,76,64,57,66,60,54,96,87,70,29.58,29.44,11,1,11,0.67
2013-9-25,78,67,59,66,62,58,97,86,63,29.50,29.42,9,1,9,0.67
2013-9-26,78,68,60,65,62,59,98,83,54,29.65,29.49,9,1,9,0.00
2013-9-27,77,65,56,61,57,51,96,77,42,29.75,29.65,7,1,7,0.01
2013-9-28,78,67,57,61,57,54,96,73,45,29.76,29.65,16,3,16,0.00
2013-9-29,64,60,58,59,58,55,98,92,75,29.68,29.60,9,2,9,0.01
2013-9-30,66,63,60,62,61,59,97,93,85,29.63,29.57,10,1,10,0.02
2013-10-1,73,66,61,67,64,60,98,92,80,29.69,29.60,10,2,10,0.00
2013-10-2,78,69,64,70,66,63,98,91,73,29.72,29.64,12,1,12,0.43
2013-10-3,80,71,64,67,64,62,96,79,55,29.68,29.57,13,2,13,0.43
2013-10-4,81,71,64,70,67,63,95,87,68,29.68,29.59,12,2,12,0.00
2013-10-5,77,70,64,70,67,63,98,91,71,29.64,29.47,23,2,23,3.33
2013-10-6,64,57,47,63,49,41,98,77,50,29.58,29.44,19,3,19,4.38
2013-10-7,63,53,43,49,45,42,95,77,54,29.77,29.54,17,2,17,0.00
2013-10-8,67,57,48,49,46,42,93,70,41,29.83,29.73,17,2,17,0.00
2013-10-9,73,60,50,61,55,47,96,82,64,29.80,29.71,8,1,8,0.00
2013-10-10,76,63,55,63,59,54,97,86,60,29.78,29.64,6,1,6,0.00
2013-10-11,77,65,55,63,57,54,97,78,47,29.69,29.59,13,1,13,0.01
2013-10-12,72,63,54,63,59,53,96,88,73,29.76,29.62,9,1,9,0.00
2013-10-13,71,63,56,60,50,44,96,66,40,29.92,29.76,13,4,13,0.00
2013-10-14,70,60,51,59,51,43,89,72,64,29.90,29.71,8,2,8,0.00
2013-10-15,68,62,60,63,60,58,98,92,79,29.71,29.56,15,3,15,0.21
2013-10-16,63,55,48,62,50,46,96,83,65,29.65,29.55,23,2,23,0.22
2013-10-17,60,51,44,49,45,43,94,81,56,29.63,29.58,13,2,13,0.08
2013-10-18,66,53,40,49,44,39,97,77,45,29.69,29.57,10,1,10,0.01
2013-10-19,54,47,39,47,40,35,93,79,50,29.68,29.52,16,3,16,0.12
2013-10-20,61,47,36,43,39,34,95,76,45,29.71,29.61,16,2,16,0.00
2013-10-21,62,51,38,50,44,36,95,78,55,29.67,29.57,14,2,14,0.01
2013-10-22,57,48,36,44,38,32,93,69,44,29.70,29.48,15,2,15,0.06
2013-10-23,49,43,39,42,33,29,85,69,47,29.75,29.53,22,4,22,0.06
2013-10-24,47,42,36,36,31,23,85,65,40,30.02,29.74,21,3,21,0.00
2013-10-25,44,11,29,29,-61,-100,90,23,49,30.15,29.93,7,-682,7,0.00
2013-10-26,54,42,28,44,34,25,93,74,54,29.93,29.68,16,3,16,0.00
2013-10-27,61,49,35,48,37,-100,90,68,37,29.75,29.65,8,-10,8,0.00
2013-10-28,64,12,49,50,-69,-100,84,17,60,29.86,29.68,0,-775,0,0.00
2013-10-29,58,38,49,57,4,-100,97,63,88,29.89,29.72,6,-322,6,0.16
2013-10-30,73,50,56,63,19,-100,100,60,69,29.75,29.58,19,-252,19,0.02
2013-10-31,67,49,53,62,24,-100,97,70,79,29.58,29.09,32,-214,32,0.78
2013-11-1,64,50,44,52,36,-100,97,72,49,29.48,29.30,13,-61,19,0.00
2013-11-2,53,30,37,42,-9,-100,94,50,57,29.82,29.47,20,-337,20,0.00
2013-11-3,49,18,32,40,-34,-100,96,43,53,29.95,29.81,10,-506,10,0.00
2013-11-4,57,40,42,48,11,-100,93,57,52,29.93,29.83,17,-218,17,0.00
2013-11-5,61,44,48,48,14,-100,86,52,55,29.95,29.76,13,-200,13,0.00
2013-11-6,55,50,39,52,45,35,95,83,61,29.86,29.65,22,7,22,0.00
2013-11-7,39,4,38,36,-87,-100,87,8,86,30.01,29.86,11,-905,11,0.00
2013-12-5,-200,0,200,-100,-100,-100,0,0,100,29.86,29.65,0,-999,0,0.13
2013-12-6,-200,0,200,-100,-100,-100,0,0,100,30.12,29.77,0,-999,0,0.00
2013-12-7,20,1,20,15,-95,-100,81,4,77,30.27,30.01,19,-953,19,0.00
2013-12-8,-200,0,200,-100,-100,-100,0,0,100,30.01,29.66,0,-999,0,0.00
2013-12-9,-200,0,200,-100,-100,-100,0,0,100,29.78,29.74,0,-999,0,0.00